When you browse on this site, cookies collect data to enhance your experience and personalize the content and advertising you see.
Visit our Privacy Policy to learn more. By continuing to use the site, you agree to this use of cookies and data.
  • Em Portugal
  • Lista de países
  • Para 7 dias
  • Temperatura da água
  • Mapas de satélite
  • Mapa do tempo
  • Widgets de tempo
  • user-avatar
    Iniciar Sessão

    Previsão horária em Ogarevo

    Hoje, 24 Junho, Segunda-feira

    Tempo Temperatura Precipitação Vento Pressão Humidade
    00:00 +21°C° 0.1 mm 1 m/s 746 mmHg 89%
    01:00 +21°C° 0 mm 1 m/s 746 mmHg 91%
    02:00 +21°C° 0 mm 1 m/s 746 mmHg 92%
    03:00 +19°C° 0 mm 2 m/s 746 mmHg 91%
    04:00 +19°C° 0.2 mm 2 m/s 746 mmHg 90%
    05:00 +19°C° 0.2 mm 2 m/s 746 mmHg 89%
    06:00 +19°C° 0.2 mm 2 m/s 746 mmHg 88%
    07:00 +20°C° 0.1 mm 2 m/s 746 mmHg 84%
    08:00 +21°C° 0.1 mm 2 m/s 746 mmHg 80%
    09:00 +24°C° 0 mm 3 m/s 747 mmHg 75%
    10:00 +24°C° 0.3 mm 3 m/s 746 mmHg 73%
    11:00 +25°C° 0.3 mm 3 m/s 746 mmHg 71%
    12:00 +25°C° 0.3 mm 3 m/s 746 mmHg 69%
    13:00 +25°C° 0.3 mm 3 m/s 746 mmHg 71%
    14:00 +25°C° 0.3 mm 3 m/s 746 mmHg 73%
    15:00 +24°C° 0 mm 3 m/s 746 mmHg 83%
    16:00 +24°C° 0.2 mm 3 m/s 746 mmHg 82%
    17:00 +22°C° 0.2 mm 3 m/s 746 mmHg 80%
    18:00 +22°C° 0.2 mm 4 m/s 746 mmHg 78%
    19:00 +21°C° 0 mm 3 m/s 746 mmHg 79%
    20:00 +19°C° 0 mm 2 m/s 747 mmHg 79%
    21:00 +18°C° 0 mm 2 m/s 747 mmHg 80%
    22:00 +17°C° 0 mm 2 m/s 747 mmHg 81%
    23:00 +16°C° 0 mm 3 m/s 747 mmHg 83%

    Amanhã, 25 Junho, Terça-feira

    Tempo Temperatura Precipitação Vento Pressão Humidade
    00:00 +14°C° 0 mm 3 m/s 746 mmHg 84%
    01:00 +14°C° 0 mm 3 m/s 747 mmHg 82%
    02:00 +13°C° 0 mm 3 m/s 747 mmHg 80%
    03:00 +12°C° 0 mm 3 m/s 747 mmHg 78%
    04:00 +13°C° 0 mm 3 m/s 747 mmHg 77%
    05:00 +13°C° 0 mm 4 m/s 748 mmHg 76%
    06:00 +14°C° 0 mm 4 m/s 748 mmHg 75%
    07:00 +15°C° 0 mm 4 m/s 748 mmHg 72%
    08:00 +16°C° 0 mm 5 m/s 749 mmHg 69%
    09:00 +19°C° 0 mm 5 m/s 749 mmHg 66%
    10:00 +20°C° 0 mm 5 m/s 749 mmHg 62%
    11:00 +20°C° 0 mm 5 m/s 749 mmHg 58%
    12:00 +21°C° 0 mm 5 m/s 749 mmHg 54%
    13:00 +21°C° 0 mm 5 m/s 749 mmHg 55%
    14:00 +21°C° 0 mm 5 m/s 749 mmHg 55%
    15:00 +21°C° 0 mm 5 m/s 749 mmHg 56%
    16:00 +21°C° 0 mm 4 m/s 749 mmHg 60%
    17:00 +20°C° 0 mm 4 m/s 749 mmHg 64%
    18:00 +20°C° 0 mm 3 m/s 749 mmHg 68%
    19:00 +18°C° 0 mm 3 m/s 749 mmHg 71%
    20:00 +17°C° 0 mm 3 m/s 750 mmHg 75%
    21:00 +14°C° 0 mm 3 m/s 750 mmHg 78%
    22:00 +13°C° 0 mm 3 m/s 750 mmHg 81%
    23:00 +12°C° 0 mm 3 m/s 750 mmHg 83%

    Depois de amanhã, 26 Junho, Quarta-feira

    Tempo Temperatura Precipitação Vento Pressão Humidade
    00:00 +12°C° 0 mm 2 m/s 750 mmHg 86%
    01:00 +11°C° 0 mm 3 m/s 750 mmHg 87%
    02:00 +10°C° 0 mm 3 m/s 750 mmHg 87%
    03:00 +10°C° 0 mm 3 m/s 750 mmHg 88%
    04:00 +11°C° 0 mm 3 m/s 750 mmHg 86%
    05:00 +11°C° 0 mm 3 m/s 750 mmHg 83%
    06:00 +12°C° 0 mm 3 m/s 750 mmHg 81%
    07:00 +13°C° 0 mm 3 m/s 750 mmHg 75%
    08:00 +16°C° 0 mm 3 m/s 750 mmHg 70%
    09:00 +17°C° 0 mm 3 m/s 750 mmHg 64%
    10:00 +18°C° 0 mm 3 m/s 750 mmHg 60%
    11:00 +19°C° 0 mm 3 m/s 749 mmHg 56%
    12:00 +19°C° 0 mm 3 m/s 749 mmHg 52%
    13:00 +20°C° 0 mm 3 m/s 749 mmHg 52%
    14:00 +20°C° 0 mm 3 m/s 749 mmHg 52%
    15:00 +20°C° 0 mm 3 m/s 748 mmHg 51%
    16:00 +20°C° 0 mm 3 m/s 748 mmHg 55%
    17:00 +20°C° 0 mm 3 m/s 747 mmHg 60%
    18:00 +19°C° 0 mm 2 m/s 747 mmHg 64%
    19:00 +17°C° 0 mm 2 m/s 747 mmHg 68%
    20:00 +16°C° 0 mm 2 m/s 746 mmHg 71%
    21:00 +14°C° 0 mm 1 m/s 746 mmHg 75%
    22:00 +14°C° 0.1 mm 2 m/s 746 mmHg 78%
    23:00 +14°C° 0.1 mm 2 m/s 745 mmHg 80%

    27 Junho, Quinta-feira

    Tempo Temperatura Precipitação Vento Pressão Humidade
    00:00 +14°C° 0.1 mm 2 m/s 745 mmHg 82%
    01:00 +14°C° 0.2 mm 2 m/s 745 mmHg 86%
    02:00 +14°C° 0.2 mm 2 m/s 744 mmHg 90%
    03:00 +12°C° 0.2 mm 3 m/s 744 mmHg 93%
    04:00 +13°C° 0.1 mm 3 m/s 744 mmHg 93%
    05:00 +13°C° 0.1 mm 3 m/s 743 mmHg 93%
    06:00 +13°C° 0.1 mm 3 m/s 743 mmHg 93%
    07:00 +14°C° 0.1 mm 3 m/s 742 mmHg 90%
    08:00 +16°C° 0.1 mm 3 m/s 742 mmHg 87%
    09:00 +16°C° 0.1 mm 2 m/s 741 mmHg 84%
    10:00 +17°C° 0.1 mm 3 m/s 741 mmHg 83%
    11:00 +17°C° 0.1 mm 3 m/s 741 mmHg 82%
    12:00 +17°C° 0.1 mm 4 m/s 740 mmHg 81%
    13:00 +17°C° 0.1 mm 4 m/s 740 mmHg 82%
    14:00 +17°C° 0.1 mm 4 m/s 739 mmHg 84%
    15:00 +15°C° 0.1 mm 4 m/s 739 mmHg 86%
    16:00 +15°C° 1.3 mm 4 m/s 738 mmHg 90%
    17:00 +15°C° 1.3 mm 4 m/s 738 mmHg 93%
    18:00 +14°C° 1.3 mm 4 m/s 737 mmHg 97%
    19:00 +14°C° 1.3 mm 4 m/s 737 mmHg 97%
    20:00 +14°C° 1.3 mm 5 m/s 736 mmHg 97%
    21:00 +14°C° 1.3 mm 6 m/s 736 mmHg 97%
    22:00 +15°C° 0.6 mm 6 m/s 735 mmHg 96%
    23:00 +15°C° 0.6 mm 6 m/s 735 mmHg 96%

    28 Junho, Sexta-feira

    Tempo Temperatura Precipitação Vento Pressão Humidade
    00:00 +15°C° 0.6 mm 6 m/s 734 mmHg 96%
    01:00 +15°C° 0.2 mm 6 m/s 733 mmHg 95%
    02:00 +15°C° 0.2 mm 6 m/s 733 mmHg 95%
    03:00 +15°C° 0.2 mm 6 m/s 732 mmHg 95%
    04:00 +15°C° 0.3 mm 6 m/s 732 mmHg 95%
    05:00 +15°C° 0.3 mm 6 m/s 731 mmHg 94%
    06:00 +15°C° 0.3 mm 6 m/s 731 mmHg 94%
    07:00 +15°C° 0.1 mm 6 m/s 730 mmHg 91%
    08:00 +15°C° 0.1 mm 6 m/s 730 mmHg 88%
    09:00 +15°C° 0.1 mm 7 m/s 730 mmHg 86%
    10:00 +15°C° 1.3 mm 6 m/s 730 mmHg 89%
    11:00 +15°C° 1.3 mm 6 m/s 730 mmHg 92%
    12:00 +15°C° 1.3 mm 5 m/s 730 mmHg 95%
    13:00 +16°C° 0.6 mm 5 m/s 730 mmHg 91%
    14:00 +17°C° 0.6 mm 5 m/s 730 mmHg 87%
    15:00 +19°C° 0.6 mm 5 m/s 730 mmHg 83%
    16:00 +19°C° 0.3 mm 4 m/s 730 mmHg 83%
    17:00 +19°C° 0.3 mm 4 m/s 730 mmHg 83%
    18:00 +19°C° 0.3 mm 3 m/s 730 mmHg 82%
    19:00 +18°C° 0.2 mm 3 m/s 730 mmHg 86%
    20:00 +16°C° 0.2 mm 3 m/s 730 mmHg 89%
    21:00 +14°C° 0.2 mm 3 m/s 731 mmHg 92%
    22:00 +13°C° 0 mm 3 m/s 731 mmHg 92%
    23:00 +12°C° 0 mm 3 m/s 731 mmHg 93%

    29 Junho, Sábado

    Tempo Temperatura Precipitação Vento Pressão Humidade
    00:00 +12°C° 0 mm 3 m/s 731 mmHg 94%
    01:00 +11°C° 0 mm 3 m/s 731 mmHg 94%
    02:00 +11°C° 0 mm 3 m/s 731 mmHg 95%
    03:00 +10°C° 0 mm 3 m/s 731 mmHg 96%
    04:00 +11°C° 0 mm 3 m/s 731 mmHg 95%
    05:00 +11°C° 0 mm 4 m/s 731 mmHg 93%
    06:00 +12°C° 0 mm 4 m/s 732 mmHg 92%
    07:00 +13°C° 0 mm 4 m/s 732 mmHg 87%
    08:00 +14°C° 0 mm 4 m/s 732 mmHg 82%
    09:00 +16°C° 0 mm 5 m/s 732 mmHg 78%
    10:00 +17°C° 0.3 mm 4 m/s 732 mmHg 76%
    11:00 +18°C° 0.3 mm 4 m/s 732 mmHg 74%
    12:00 +19°C° 0.3 mm 4 m/s 733 mmHg 72%
    13:00 +19°C° 0.5 mm 4 m/s 733 mmHg 72%
    14:00 +19°C° 0.5 mm 4 m/s 733 mmHg 72%
    15:00 +19°C° 0.5 mm 4 m/s 733 mmHg 72%
    16:00 +19°C° 0.3 mm 4 m/s 733 mmHg 74%
    17:00 +19°C° 0.3 mm 3 m/s 733 mmHg 76%
    18:00 +19°C° 0.3 mm 3 m/s 733 mmHg 78%
    19:00 +17°C° 0.2 mm 2 m/s 733 mmHg 82%
    20:00 +16°C° 0.2 mm 2 m/s 733 mmHg 85%
    21:00 +14°C° 0.2 mm 2 m/s 734 mmHg 89%
    22:00 +14°C° 0 mm 2 m/s 734 mmHg 90%
    23:00 +13°C° 0 mm 1 m/s 734 mmHg 90%
    Mostrar mais